A/2020 A1

Japanese version
Home page
Updated on March 8, 2020

---------------------------------------------------------------------

* Profile

Discovery Date January 1, 2020
Magnitude 20 mag
Discoverer Near-Earth Object Wide-field Infrared Survey Explorer

* Orbital Elements

Epoch 2019 Nov. 13.0 TT = JDT 2458800.5
T 2019 Dec. 2.77208 TT                                  Rudenko
q   1.6711076            (2000.0)            P               Q
n   0.00747946     Peri.  302.71127     -0.89369107     -0.00725317
a  25.8954058      Node   119.27873     +0.28083873     +0.77074421
e   0.9354670      Incl.  149.04737     -0.34992266     +0.63710341
P 132              H   18.0
From 49 observations 2020 Jan. 1-Feb. 26, mean residual 0".4.

* Magnitudes Graph

        H = 18.0  G = 0.15

---------------------------------------------------------------------

The orbital elements are published on M.P.E.C. 2020-E26.
The magnitudes graphs are made with Comet for Windows.

---------------------------------------------------------------------

Copyright(C) Seiichi Yoshida (comet@aerith.net). All rights reserved.